Location: Nashville
(36.1660°N, 86.7840°W)
Time: 14:12:56
(UTC-06:00)

Hubble Space Telescope - Pass Details

Date: 04 December 2023
Orbit: 516 x 519 km, 28.5° (Epoch: 26 February)

Event Time Altitude Azimuth Distance (km) Brightness Sun altitude
Rises 17:44:24 0° 254° (WSW) 2,616 6.3 -14.3°
Reaches altitude 10° 17:48:21 10° 215° (SW) 1,730 4.1 -15.0°
Maximum altitude 17:49:17 11° 201° (SSW) 1,686 3.8 -15.2°
Drops below altitude 10° 17:50:14 10° 187° (S) 1,730 3.7 -15.4°
Sets 17:54:11 0° 149° (SSE) 2,616 4.1 -16.2°
